Location: Newark
(30.1000°N, 109.4667°E)
Time: 12:22:47
(UTC+00:00)

Vanguard 2 Rocket - Pass Details

Date: 24 February 2020
Orbit: 554 x 3326 km, 32.9° (Epoch: 06 April)

Event Time Altitude Azimuth Distance (km) Brightness Sun altitude
Rises 14:18:30 0° 272° (W) 7,098 12.1 -48.1°
Reaches altitude 10° 14:23:43 10° 274° (W) 5,832 11.4 -49.1°
Enters shadow 14:36:58 57° 290° (WNW) 2,577 9.0 -51.7°
